User: anonymous   Login
Location: Bh?mavarapp?du
(16.7041°N, 80.6518°E)
Time: 02:47:16
(UTC+00:00)
Language:

Palapa 6 Rocket - Orbit

View from above orbital plane
View from above orbital plane
View from above satellite
View from above satellite

Ground track
Ground track

The orbit data is extracted from the following two-line orbital elements,

1 20571U 90034B   21169.19564400  .00000603  00000-0  41406-4 0  9997
2 20571  22.7477  85.9577 0505845 341.6604  16.6216 14.12616283599434
Epoch (UTC): 18 June 2021 04:41:43
Eccentricity: 0.0505845
inclination: 22.7477°
perigee height: 485 km
apogee height: 1216 km
right ascension of ascending node: 85.9577°
argument of perigee: 341.6604°
revolutions per day: 14.12616283
mean anomaly at epoch: 16.6216°
orbit number at epoch: 59943

The dashed part of the orbit path shows where the satellite is in the earth's shadow,  

DLR